Regional Weather Roundup
Issued by NWS

Home | Current Version | Previous Version | Graphics & Text | Print | Product List | Glossary On
Versions: 1 2 3 4 5 6 7 8 9 10 11 12 13 14 15 16 17 18 19 20 21 22 23 24 25 26 27 28 29 30 31 32 33 34 35 36 37 38 39 40 41 42 43 44 45 46 47 48 49 50
000
ASUS43 KOAX 301002
RWRNE

WEATHER ROUNDUP FOR NEBRASKA
NATIONAL WEATHER SERVICE OMAHA NE
500 AM CDT SAT AUG 30 2014

NOTES: SATELLITE DATA IS BEING USED TO AUGMENT CLOUD COVER ABOVE
       12000 FEET.
       "FAIR" INDICATES FEW OR NO CLOUDS BELOW 12,000 FEET WITH NO
       SIGNIFICANT WEATHER AND/OR OBSTRUCTIONS TO VISIBILITY.

  * THESE STATIONS DO NOT REPORT WEATHER SUCH AS RAIN...SNOW OR FOG.

NEZ001>004-019>022-054>056-301100-
NEBRASKA PANHANDLE

CITY           SKY/WX    TMP DP  RH WIND       PRES   REMARKS
SCOTTSBLUFF    CLEAR     57  54  89 SE9       30.03F
ALLIANCE       CLEAR     52  50  93 SE3       30.03F
CHADRON        CLEAR     51  50  96 N3        29.98F
KIMBALL        PTCLDY    54  51  91 S7        30.07F
SIDNEY         CLEAR     56  53  90 S5        30.07F
$$

NEZ057>060-069>072-079>082-301100-
SOUTHWEST NEBRASKA

CITY           SKY/WX    TMP DP  RH WIND       PRES   REMARKS
NORTH PLATTE   PTCLDY    55  54  96 CALM      30.02R
IMPERIAL       CLEAR     58  55  90 NW3       30.04S
LEXINGTON      CLEAR     57  56  95 W6        29.99S
MCCOOK         CLEAR     59  57  93 NW5       30.01S
OGALLALA       MOCLDY    54  53  98 SW3       30.03F
$$

NEZ005>010-023>029-035>040-094-301100-
NORTH CENTRAL NEBRASKA

CITY           SKY/WX    TMP DP  RH WIND       PRES   REMARKS
VALENTINE      CLEAR     53  52  96 W3        30.00S
AINSWORTH      CLEAR     55  55  98 CALM      30.01S
BROKEN BOW     CLEAR     57  54  89 CALM      30.00R
O`NEILL        PTCLDY    58  58  99 NW8       29.98R
ORD            CLEAR     58  56  93 NW7       29.97R
$$

NEZ041-046>049-061>064-073>077-083>087-301100-
SOUTH CENTRAL NEBRASKA

CITY           SKY/WX    TMP DP  RH WIND       PRES   REMARKS
GRAND ISLAND   CLEAR     60  58  92 W5        29.96S
AURORA         CLEAR     59  59 100 W3        29.96R
HASTINGS       CLEAR     62  57  83 NW8       29.96S
HEBRON         CLEAR     63  59  88 CALM      29.94R
HOLDREGE       CLEAR     59  57  92 CALM      29.99R
KEARNEY *      CLEAR     59  55  88 NW5       29.98S
$$

NEZ011>018-030>034-042>045-301100-
NORTHEAST NEBRASKA

CITY           SKY/WX    TMP DP  RH WIND       PRES   REMARKS
NORFOLK        CLEAR     63  60  90 NW6       29.92S
ALBION         CLEAR     61  58  90 NW3       29.96R
BLAIR          CLEAR     65  62  92 W3        29.89R
FREMONT        CLEAR     64  62  93 W6        29.90R
TEKAMAH        CLEAR     64  61  90 NW6       29.87S
WAYNE          PTCLDY    64  62  95 NW5       29.91S
$$

NEZ050>053-065>068-078-088>093-301100-
SOUTHEAST NEBRASKA

CITY           SKY/WX    TMP DP  RH WIND       PRES   REMARKS
LINCOLN        PTCLDY    66  62  87 NW3       29.92R
OMAHA EPPLEY   CLEAR     65  62  90 W3        29.88R
BEATRICE       CLEAR     61  61 100 W3        29.92R
FALLS CITY     CLEAR     66  65  96 W6        29.88R
NEBRASKA CITY  CLEAR     64  64 100 W6        29.89S FOG
PLATTSMOUTH    CLEAR     65  64  94 W5        29.89R
$$

NEZ044-045-051>053-067-301100-
OMAHA AREA

CITY           SKY/WX    TMP DP  RH WIND       PRES   REMARKS
OMAHA EPPLEY   CLEAR     65  62  90 W3        29.88R
BLAIR          CLEAR     65  62  92 W3        29.89R
FREMONT        CLEAR     64  62  93 W6        29.90R
MILLARD        CLEAR     66  64  92 CALM      29.89R
OFFUTT AFB     CLEAR     64  64 100 CALM      29.88R
PLATTSMOUTH    CLEAR     65  64  94 W5        29.89R
WAHOO          FAIR      65  61  88 W5        29.90S
$$


USA.gov is the U.S. government's official web portal to all federal, state and local government web resources and services.